AURORASAT (56312 NORAD) Tracking and Keplerian Element Data

This shows tracking and keplerian element data for the satellite.

Feedback or suggestion? Click here.




ElementValue
Catalog56312
NameAURORASAT
Epoch Orbit1945
Epoch Day238.82608466
Epoch Year2023
RAAN329.322
Inclination51.6334
Eccentricity0.0010813
Argument of Perigee343.8263
Mean Anonmoly16.2389
Mean Motion15.73107821
Decay Rate0.00163318
L11 56312U 98067VD 23238.82608466 .00163318 00000+0 11447-2 0 9995
L22 56312 51.6334 329.3220 0010813 343.8263 16.2389 15.73107821 19457



Live tracking and technical data element details for AURORASAT (NORAD 56312). AURORASAT can be tracked NOW for your location showing map with azimuth and elevation plus other details from your city location.







IsCatalogInMostPopularTable: catalog: 56312, numindb: 48
Update: records affected: 1



GetName: 56312 AURORASAT

Hit Count: updated at: Fri, 24 Jan 2025 23:00:08 GMT